{"data":{"norad_id":55757,"epoch":"2026-09-20T22:00:03.000096Z","epoch_age_seconds":67117,"freshness":"FRESH","line1":"1 55757U 23028S   26263.91670139  .00068379  00000+0  47500-2 0  9999","line2":"2 55757  70.0013 112.0997 0000787 201.2295 261.0471 15.05155142  5728","mean_motion":15.05155142,"eccentricity":7.87e-5,"inclination_deg":70.0013,"raan_deg":112.0997,"arg_perigee_deg":201.2295,"mean_anomaly_deg":261.0471,"bstar":0.00475,"rev_number":572,"period_min":95.671200915978,"perigee_km":550.48417235574,"apogee_km":551.57482316249,"semimajor_km":6929.1664977591,"source":"CELESTRAK","updated_at":"2026-09-21T09:00:33.314444Z"}}